Regional Weather Roundup
Issued by NWS

Home | Current Version | Previous Version | Text Only | Print | Product List | Glossary Off
Versions: 1 2 3 4 5 6 7 8 9 10 11 12 13 14 15 16 17 18 19 20 21 22 23 24 25 26 27 28 29 30 31 32 33 34 35 36 37 38 39 40 41 42 43 44 45 46 47 48 49 50

000
ASUS43 KOAX 070402
RWRNE

WEATHER ROUNDUP FOR NEBRASKA
NATIONAL WEATHER SERVICE OMAHA NE
1100 PM CDT WED MAY 06 2015

NOTES: SATELLITE DATA IS BEING USED TO AUGMENT CLOUD COVER ABOVE
       12000 FEET.
       "FAIR" INDICATES FEW OR NO CLOUDS BELOW 12,000 FEET WITH NO
       SIGNIFICANT WEATHER AND/OR OBSTRUCTIONS TO VISIBILITY.

  * THESE STATIONS DO NOT REPORT WEATHER SUCH AS RAIN...SNOW OR FOG.

NEZ001>004-019>022-054>056-070500-
NEBRASKA PANHANDLE

CITY           SKY/WX    TMP DP  RH WIND       PRES   REMARKS
SCOTTSBLUFF    CLOUDY    50  45  83 NW23G30   29.78R
ALLIANCE       CLOUDY    50  48  93 NW14      29.71R
CHADRON        CLOUDY    51  49  92 W7        29.73R
SIDNEY         CLOUDY    52  47  83 NW23G31   29.76R
$$

NEZ057>060-069>072-079>082-070500-
SOUTHWEST NEBRASKA

CITY           SKY/WX    TMP DP  RH WIND       PRES   REMARKS
NORTH PLATTE   MOCLDY    58  55  90 CALM      29.62R
IMPERIAL       PTCLDY    58  53  84 W10       29.66R
MCCOOK         CLEAR     60  55  83 W9        29.62R
$$

NEZ005>010-023>029-035>040-094-070500-
NORTH CENTRAL NEBRASKA

CITY           SKY/WX    TMP DP  RH WIND       PRES   REMARKS
VALENTINE      MOCLDY    58  56  93 W5        29.61S
BROKEN BOW     CLOUDY    58  56  93 SE6       29.61S
ORD            MOCLDY    58  55  90 S5        29.61R
$$

NEZ041-046>049-061>064-073>077-083>087-070500-
SOUTH CENTRAL NEBRASKA

CITY           SKY/WX    TMP DP  RH WIND       PRES   REMARKS
GRAND ISLAND   LGT RAIN  61  58  90 S13G21    29.65R
HASTINGS       TSTM      61  59  93 SE14G21   29.65R
KEARNEY *      CLOUDY    57  55  94 SE5       29.62F
$$

NEZ011>018-030>034-042>045-070500-
NORTHEAST NEBRASKA

CITY           SKY/WX    TMP DP  RH WIND       PRES   REMARKS
NORFOLK        CLOUDY    62  59  90 SE16      29.63F
COLUMBUS *     CLOUDY    63  54  72 SE15G21   29.66F
TEKAMAH        TSTM      63  60  90 S23       29.75S FOG
$$

NEZ050>053-065>068-078-088>093-070500-
SOUTHEAST NEBRASKA

CITY           SKY/WX    TMP DP  RH WIND       PRES   REMARKS
LINCOLN        TSTM      62  58  86 E23G33    29.71F FOG
OMAHA EPPLEY   TSTM      65  60  84 W6        29.75S
FALLS CITY     CLOUDY    69  58  67 SE22G31   29.76F
$$

NEZ044-045-051>053-067-070500-
OMAHA AREA

CITY           SKY/WX    TMP DP  RH WIND       PRES   REMARKS
OMAHA EPPLEY   TSTM      65  60  84 W6        29.75S
$$



USA.gov is the U.S. government's official web portal to all federal, state and local government web resources and services.